Flag for Colombia Weather past 2 weeks in Bucaramanga, Colombia

Now
68 °F

Partly sunny.


Feels Like: 68 °F
Forecast: 66 / 81 °F
Wind: 2 mph from North

Location: Bucaramanga / Palonegro

Current Time: May 27, 2015 at 8:01:21 AM

Latest Report: May 27, 2015 at 7:00 AM


Visibility: N/A

Pressure: 29.99 "Hg

Humidity: 100%

Dew point: 68 °F

Location of BucaramangaLocation

Historic Weather in Bucaramanga — Graph

°F

Bucaramanga temperature yesterday

Maximum temperature yesterday: 79 °F (at 12:00 PM)
Minimum temperature yesterday: 66 °F (at 12:00 AM)
Average temperature yesterday: 73 °F

Past Weeks' High & Low Weather Summary

 TemperatureHumidityPressure
High82 °F (May 12, 12:00 PM)100% (May 14, 7:00 AM)30.38 "Hg (May 14, 7:00 AM)
Low57 °F (May 20, 9:10 PM)54% (May 13, 10:00 AM)29.86 "Hg (May 13, 3:00 PM)
Average73 °F82%30.00 "Hg
* Reported May 12 7:00 AM — May 27 7:00 AM, Bucaramanga, Weather by CustomWeather, © 2015

Note: Actual official high and low records may vary slightly from our data, if they occured in-between our weather recording intervals... More about our weather records

Advertising

Bucaramanga weather history for previous 24 hours

 ConditionsComfort  
Time TempWeatherWind HumidityBarometerVisibility
7:00 AM
Wed, May 27
68 °FPartly sunny.2 mph100%29.99 "HgN/A
6:00 AM68 °FScattered clouds.2 mph94%29.97 "HgN/A
11:00 PM
Tue, May 26
72 °FPassing clouds.No wind88%30.02 "HgN/A
10:00 PM70 °FPartly cloudy.2 mph94%30.02 "HgN/A
9:00 PM70 °FPassing clouds.2 mph94%30.01 "HgN/A
8:00 PM72 °FPassing clouds.2 mph88%29.98 "HgN/A
7:00 PM72 °FPassing clouds.6 mph88%29.97 "HgN/A
6:00 PM73 °FScattered clouds.6 mph83%29.94 "HgN/A
4:00 PM77 °FScattered clouds.12 mph74%29.91 "HgN/A
3:00 PM77 °FScattered clouds.14 mph69%29.94 "HgN/A
2:00 PM79 °FScattered clouds.8 mph65%29.96 "HgN/A
1:00 PM79 °FScattered clouds.7 mph65%29.98 "HgN/A
12:00 PM79 °FScattered clouds.5 mph65%29.99 "HgN/A
11:00 AM75 °FScattered clouds.7 mph74%30.01 "HgN/A
10:00 AM77 °FPassing clouds.2 mph69%30.02 "HgN/A
9:00 AM73 °FScattered clouds.6 mph78%30.03 "HgN/A
8:00 AM68 °FPartly sunny.5 mph94%30.04 "HgN/A
Weather by CustomWeather, © 2015

See weather overviewHow to use our weather pages